Overview Statistics Trail Chart Weather Telemetry Raw packets
 

This is the latest recevied weather packets stored in our database for station/object KO6HRZ. If no packets are shown the sender has not sent any weather packets the latest 10 day(s).

<< 36 37 38 39 40 41 42 >>
Time Temp. Humidity Pressure Rain* Wind** Luminosity Snow
1788121509 28.89° C 46% 1010.8 hPa 0 mm - 730 W/m² -
1788120913 29.44° C 45% 1010.7 hPa 0 mm - 727 W/m² -
1788120300 28.89° C 46% 1010.8 hPa 0 mm - 720 W/m² -
1788119695 28.89° C 46% 1010.9 hPa 0 mm - 717 W/m² -
1788119092 28.33° C 47% 1011 hPa 0 mm - 714 W/m² -
1788118492 27.78° C 49% 1011.1 hPa 0 mm - 718 W/m² -
1788117889 27.22° C 49% 1011.4 hPa 0 mm - 717 W/m² -
1788117283 27.22° C 50% 1011.3 hPa 0 mm - 718 W/m² -
1788116680 26.11° C 52% 1011.6 hPa 0 mm - 709 W/m² -
1788116081 25.56° C 53% 1011.6 hPa 0 mm - 684 W/m² -
1788115480 25.56° C 53% 1011.6 hPa 0 mm - 639 W/m² -
1788114875 25° C 55% 1011.9 hPa 0 mm - 589 W/m² -
1788114273 25° C 54% 1011.9 hPa 0 mm - 562 W/m² -
1788113670 25° C 56% 1011.7 hPa 0 mm - 565 W/m² -
1788113070 24.44° C 55% 1011.9 hPa 0 mm - 569 W/m² -
1788112469 23.89° C 57% 1011.9 hPa 0 mm - 562 W/m² -
1788111866 22.78° C 60% 1012.1 hPa 0 mm - 543 W/m² -
1788111262 23.33° C 59% 1012.1 hPa 0 mm - 519 W/m² -
1788110660 22.22° C 62% 1012 hPa 0 mm - 492 W/m² -
1788110057 22.78° C 61% 1012 hPa 0 mm - 460 W/m² -
1788109456 21.67° C 62% 1012.1 hPa 0 mm - 424 W/m² -
1788108856 22.22° C 62% 1012.1 hPa 0 mm - 390 W/m² -
1788108254 20.56° C 66% 1012.1 hPa 0 mm - 358 W/m² -
1788107652 20.56° C 66% 1011.9 hPa 0 mm - 320 W/m² -
1788107048 20° C 68% 1012.1 hPa 0 mm - 287 W/m² -

* Rain latest hour (hover to see other rain measurements)
** Current wind speed in m/s (hover to see current wind gust speed)